Location: Clarks Summit,Pa.
(41.5000°N, 75.6000°W)
Time: 03:12:21
(UTC-05:00)

BlueWalker 3 - Pass Details

Date: 07 December 2022
Orbit: 499 x 517 km, 53.2° (Epoch: 07 February)

Event Time Altitude Azimuth Distance (km) Brightness Sun altitude
Rises 19:04:34 0° 308° (NW) 2,623 6.2 -27.7°
Reaches altitude 10° 19:06:47 10° 310° (NW) 1,730 5.2 -28.1°
Enters shadow 19:08:12 21° 312° (NW) 1,173 4.2 -28.4°
